|
NORAD ID: 27821 Int'l Code: 2003-024B
Perigee: 294.0 km
Apogee: 13,881.3 km
Inclination: 49.6 °
Period: 259.0 minutes
Semi major axis: 13458 km
Launch date: June 6, 2003
Source: Commonwealth of Independent States (former USSR) (CIS)
Note: This is SATELLITE DEBRIS
Two Line Element Set (TLE):
1 27821U 03024B 13142.45625606 .00007904 00000-0 99351-3 0 1851
2 27821 049.5824 141.6035 5047800 000.1227 210.0150 05.56033455196157
Source:
NASA's NSSDC Master Catalog entry for BREEZE-M DEB (TANK)
|